Regional Weather Roundup
Issued by NWS

Home | Current Version | Previous Version | Graphics & Text | Print | Product List | Glossary On
Versions: 1 2 3 4 5 6 7 8 9 10 11 12 13 14 15 16 17 18 19 20 21 22 23 24 25 26 27 28
000
ASUS45 KSLC 212310
RWRUT

UTAH REGIONAL WEATHER ROUNDUP
NATIONAL WEATHER SERVICE SALT LAKE CITY UT
400 PM MST SUN JAN 21 2018

UTZ001>011-023>025-220000-

NORTHERN UTAH

CITY           SKY/WX    TMP DP  RH WIND       PRES   REMARKS
BRIGHAM CITY   SUNNY     36  16  44 CALM      30.22R
HILL AFB       SUNNY     30  18  61 SW5       30.20R WCI  25
LOGAN          SUNNY     32  18  56 SW6       30.21R WCI  26
OGDEN          SUNNY     34  19  54 W7        30.21R WCI  28
SALT LAKE CITY SUNNY     35  22  58 CALM      30.23R
TOOELE VALLEY  SUNNY     32  25  74 CALM      30.25R
WENDOVER       SUNNY     39  19  44 SE12      30.22R WCI  32
HEBER CITY     CLOUDY    32  14  47 W3        30.15R
WEST JORDAN    SUNNY     29  23  77 NW7       30.23R WCI  22

$$

UTZ011>015-024>027-220000-

CENTRAL/NORTHEAST UTAH

CITY           SKY/WX    TMP DP  RH WIND       PRES   REMARKS
PROVO AIRPORT  MOSUNNY   32  20  61 NW13      30.24R WCI  22
MOAB/CANYONLAN CLOUDY    40  19  43 NW16      30.06R WCI  31
DELTA          CLOUDY    28  23  80 S8        30.25R WCI  20
PRICE          SUNNY     30  11  45 NW22G39   30.06R WCI  17
RICHFIELD      PTSUNNY   28  19  69 CALM      30.23R
ROOSEVELT      MOSUNNY   36  16  44 NE8       30.08R WCI  29
VERNAL         CLOUDY    31  14  49 SE6       30.08R WCI  25

$$

UTZ013>016-019>022-027-220000-

SOUTHERN UTAH

CITY           SKY/WX    TMP DP  RH WIND       PRES   REMARKS
BRYCE CANYON   FLURRIES  22  14  71 NW17G26   30.11R WCI   8
CEDAR CITY     SUNNY     30  18  60 NE10      30.20R WCI  21
MILFORD        SUNNY     31  19  61 NE6       30.23R WCI  25
ST GEORGE        N/A     47  18  31 W14G23    30.23S
HANKSVILLE     SUNNY     37   9  30 NW22G29   30.12R WCI  27
KANAB          MOSUNNY   39  14  35 N8        30.20R WCI  34
BLANDING         N/A     31  14  49 NW16G26   30.10R WCI  20

$$

REGIONAL REPORTS     COLORADO/ARIZONA

CITY           SKY/WX    TMP DP  RH WIND       PRES   REMARKS
CRAIG, CO      CLOUDY    24  14  65 N17       30.01R WCI  11
GRAND JUNCTION PTSUNNY   30  21  69 NW24      30.07R WCI  16
RIFLE, CO      CLOUDY    29  19  66 NW17      30.02R WCI  17
MONTROSE, CO   PTSUNNY   29  19  66 NW26G37   30.03R WCI  14
CORTEZ, CO     MOSUNNY   30  19  63 NW15G29   29.99R WCI  19
COLORADO CITY    N/A     37  16  41 NW21G31   30.21S WCI  27
PAGE, AZ       SUNNY     43   9  24 NW17G32   30.10R
GRAND CANYON   SUNNY     31  12  45 W9G18     30.11R WCI  23
KINGMAN, AZ    SUNNY    N/A N/A N/A N16       30.23R
FLAGSTAFF, AZ  SUNNY     30   9  41 SW10      30.09R WCI  21

$$

REGIONAL REPORTS    NEVADA/IDAHO/WYOMING

CITY           SKY/WX    TMP DP  RH WIND       PRES   REMARKS
LAS VEGAS, NV  MOSUNNY   54  13  19 N14       30.24S
ELY, NY        SUNNY     25  14  63 CALM      30.21R
ELKO, NV       SUNNY     36  17  46 SW10      30.22R WCI  28
POCATELLO, ID  MOSUNNY   34  22  61 SW15      30.19S WCI  24
BURLEY, ID     SUNNY     39  22  50 W8        30.19R WCI  33
FORT BRIDGER,  FLURRIES  21  16  79 W15G22    30.11R WCI   8
EVANSTON, WY   CLOUDY    19  13  77 W6        30.10R WCI  11
ROCK SPRINGS,  MOSUNNY   19  14  81 W13       30.06R WCI   6

$$




USA.gov is the U.S. government's official web portal to all federal, state and local government web resources and services.